When you browse on this site, cookies collect data to enhance your experience and personalize the content and advertising you see.
Visit our Privacy Policy to learn more. By continuing to use the site, you agree to this use of cookies and data.
  • In United Kingdom
  • List of Countries
  • For 7 days
  • Water Temperature
  • Weather Map
  • Weather Widgets
  • user-avatar
    Login

    Hourly Weather Dorchester

    Today, 26 February, Wednesday

    Time Temperature Precipitation Wind Pressure Humidity
    00:00 -1°C° 0 mm 7 mps 743 mmHg 87%
    01:00 -2°C° 0 mm 7 mps 743 mmHg 87%
    02:00 -2°C° 0 mm 6 mps 744 mmHg 86%
    03:00 -2°C° 0 mm 5 mps 744 mmHg 85%
    04:00 -2°C° 0 mm 6 mps 745 mmHg 86%
    05:00 -2°C° 0 mm 6 mps 745 mmHg 87%
    06:00 -2°C° 0 mm 6 mps 746 mmHg 88%
    07:00 -1°C° 0 mm 7 mps 746 mmHg 86%
    08:00 0°C° 0 mm 7 mps 747 mmHg 83%
    09:00 0°C° 0 mm 8 mps 748 mmHg 81%
    10:00 +1°C° 0.1 mm 8 mps 748 mmHg 78%
    11:00 +2°C° 0.1 mm 9 mps 749 mmHg 75%
    12:00 +3°C° 0.1 mm 9 mps 750 mmHg 73%
    13:00 +3°C° 0.1 mm 9 mps 750 mmHg 69%
    14:00 +4°C° 0.1 mm 8 mps 750 mmHg 66%
    15:00 +4°C° 0.1 mm 8 mps 751 mmHg 63%
    16:00 +3°C° 0 mm 7 mps 751 mmHg 67%
    17:00 +1°C° 0 mm 5 mps 751 mmHg 72%
    18:00 0°C° 0 mm 4 mps 752 mmHg 76%
    19:00 0°C° 0 mm 4 mps 751 mmHg 78%
    20:00 0°C° 0 mm 4 mps 751 mmHg 81%
    21:00 0°C° 0 mm 3 mps 751 mmHg 83%
    22:00 0°C° 0 mm 4 mps 751 mmHg 82%
    23:00 0°C° 0 mm 4 mps 750 mmHg 82%

    Tomorrow, 27 February, Thursday

    Time Temperature Precipitation Wind Pressure Humidity
    00:00 0°C° 0 mm 4 mps 749 mmHg 81%
    01:00 0°C° 0.2 mm 4 mps 748 mmHg 86%
    02:00 +1°C° 0.2 mm 4 mps 746 mmHg 91%
    03:00 +1°C° 0.2 mm 4 mps 745 mmHg 96%
    04:00 +1°C° 1.4 mm 5 mps 743 mmHg 97%
    05:00 +1°C° 1.4 mm 6 mps 741 mmHg 97%
    06:00 0°C° 1.4 mm 7 mps 739 mmHg 97%
    07:00 +1°C° 1.6 mm 6 mps 738 mmHg 97%
    08:00 +2°C° 1.6 mm 5 mps 737 mmHg 97%
    09:00 +2°C° 1.6 mm 5 mps 736 mmHg 98%
    10:00 0°C° 0.2 mm 7 mps 738 mmHg 97%
    11:00 0°C° 0.2 mm 9 mps 739 mmHg 96%
    12:00 -2°C° 0.2 mm 11 mps 741 mmHg 95%
    13:00 0°C° 0 mm 10 mps 743 mmHg 89%
    14:00 +1°C° 0 mm 10 mps 745 mmHg 83%
    15:00 +2°C° 0 mm 10 mps 746 mmHg 76%
    16:00 +1°C° 0 mm 9 mps 748 mmHg 78%
    17:00 0°C° 0 mm 7 mps 749 mmHg 80%
    18:00 -1°C° 0 mm 6 mps 750 mmHg 81%
    19:00 0°C° 0 mm 5 mps 751 mmHg 82%
    20:00 0°C° 0 mm 5 mps 752 mmHg 84%
    21:00 -1°C° 0 mm 5 mps 753 mmHg 85%
    22:00 -1°C° 0 mm 5 mps 753 mmHg 85%
    23:00 -1°C° 0 mm 4 mps 754 mmHg 86%

    Day after tomorrow, 28 February, Friday

    Time Temperature Precipitation Wind Pressure Humidity
    00:00 -1°C° 0 mm 4 mps 754 mmHg 86%
    01:00 0°C° 0 mm 3 mps 754 mmHg 87%
    02:00 0°C° 0 mm 3 mps 754 mmHg 87%
    03:00 0°C° 0 mm 3 mps 754 mmHg 88%
    04:00 0°C° 0 mm 3 mps 754 mmHg 88%
    05:00 +1°C° 0 mm 3 mps 754 mmHg 88%
    06:00 +1°C° 0 mm 3 mps 753 mmHg 88%
    07:00 +2°C° 0.1 mm 3 mps 753 mmHg 88%
    08:00 +1°C° 0.1 mm 4 mps 753 mmHg 88%
    09:00 +3°C° 0.1 mm 4 mps 752 mmHg 88%
    10:00 +2°C° 0.2 mm 5 mps 751 mmHg 90%
    11:00 +2°C° 0.2 mm 6 mps 751 mmHg 93%
    12:00 +1°C° 0.2 mm 6 mps 750 mmHg 96%
    13:00 +2°C° 0.8 mm 6 mps 749 mmHg 96%
    14:00 +2°C° 0.8 mm 6 mps 748 mmHg 96%
    15:00 +2°C° 0.8 mm 6 mps 747 mmHg 96%
    16:00 +2°C° 0.4 mm 5 mps 746 mmHg 97%
    17:00 +4°C° 0.4 mm 4 mps 745 mmHg 97%
    18:00 +4°C° 0.4 mm 3 mps 745 mmHg 98%
    19:00 +6°C° 0.5 mm 4 mps 744 mmHg 97%
    20:00 +7°C° 0.5 mm 5 mps 743 mmHg 97%
    21:00 +8°C° 0.5 mm 6 mps 743 mmHg 96%
    22:00 +8°C° 0.3 mm 7 mps 742 mmHg 95%
    23:00 +7°C° 0.3 mm 8 mps 741 mmHg 94%

    29 February, Saturday

    Time Temperature Precipitation Wind Pressure Humidity
    00:00 +7°C° 0.3 mm 8 mps 740 mmHg 94%
    01:00 +7°C° 0.5 mm 9 mps 739 mmHg 93%
    02:00 +7°C° 0.5 mm 9 mps 737 mmHg 91%
    03:00 +7°C° 0.5 mm 10 mps 736 mmHg 90%
    04:00 +8°C° 0.8 mm 10 mps 735 mmHg 91%
    05:00 +8°C° 0.8 mm 11 mps 733 mmHg 91%
    06:00 +8°C° 0.8 mm 11 mps 732 mmHg 91%
    07:00 +7°C° 1.7 mm 10 mps 732 mmHg 91%
    08:00 +5°C° 1.7 mm 9 mps 731 mmHg 91%
    09:00 +4°C° 1.7 mm 7 mps 731 mmHg 91%
    10:00 +4°C° 0.3 mm 8 mps 732 mmHg 85%
    11:00 +3°C° 0.3 mm 9 mps 733 mmHg 78%
    12:00 +3°C° 0.3 mm 10 mps 733 mmHg 72%
    13:00 +3°C° 0.3 mm 10 mps 733 mmHg 71%
    14:00 +3°C° 0.3 mm 10 mps 733 mmHg 69%
    15:00 +3°C° 0.3 mm 10 mps 733 mmHg 68%
    16:00 +2°C° 0.1 mm 10 mps 733 mmHg 70%
    17:00 +1°C° 0.1 mm 9 mps 733 mmHg 72%
    18:00 0°C° 0.1 mm 8 mps 733 mmHg 74%
    19:00 0°C° 0 mm 9 mps 733 mmHg 77%
    20:00 0°C° 0 mm 9 mps 733 mmHg 79%
    21:00 0°C° 0 mm 10 mps 734 mmHg 82%
    22:00 0°C° 0 mm 10 mps 734 mmHg 82%
    23:00 0°C° 0 mm 10 mps 734 mmHg 82%

    1 March, Sunday

    Time Temperature Precipitation Wind Pressure Humidity
    00:00 0°C° 0 mm 9 mps 734 mmHg 82%
    01:00 0°C° 0.1 mm 9 mps 734 mmHg 82%
    02:00 0°C° 0.1 mm 9 mps 734 mmHg 81%
    03:00 0°C° 0.1 mm 9 mps 734 mmHg 81%
    04:00 -1°C° 0.2 mm 9 mps 734 mmHg 84%
    05:00 -1°C° 0.2 mm 9 mps 734 mmHg 88%
    06:00 -1°C° 0.2 mm 9 mps 733 mmHg 91%
    07:00 0°C° 0.1 mm 9 mps 733 mmHg 86%
    08:00 +1°C° 0.1 mm 9 mps 733 mmHg 81%
    09:00 +2°C° 0.1 mm 8 mps 733 mmHg 76%
    10:00 +2°C° 0.1 mm 9 mps 733 mmHg 73%
    11:00 +3°C° 0.1 mm 10 mps 733 mmHg 71%
    12:00 +4°C° 0.1 mm 11 mps 733 mmHg 68%
    13:00 +4°C° 0.3 mm 11 mps 733 mmHg 69%
    14:00 +3°C° 0.3 mm 11 mps 732 mmHg 70%
    15:00 +3°C° 0.3 mm 11 mps 732 mmHg 71%
    16:00 +3°C° 0.1 mm 10 mps 732 mmHg 74%
    17:00 +2°C° 0.1 mm 9 mps 732 mmHg 76%
    18:00 +1°C° 0.1 mm 8 mps 731 mmHg 79%
    19:00 +1°C° 0 mm 8 mps 731 mmHg 79%
    20:00 +1°C° 0 mm 8 mps 731 mmHg 78%
    21:00 0°C° 0 mm 9 mps 731 mmHg 78%
    22:00 0°C° 0 mm 9 mps 731 mmHg 78%
    23:00 0°C° 0 mm 9 mps 730 mmHg 79%

    2 March, Monday

    Time Temperature Precipitation Wind Pressure Humidity
    00:00 0°C° 0 mm 10 mps 730 mmHg 80%
    01:00 +1°C° 0.4 mm 10 mps 730 mmHg 84%
    02:00 +1°C° 0.4 mm 10 mps 729 mmHg 88%
    03:00 +1°C° 0.4 mm 10 mps 729 mmHg 92%
    04:00 +1°C° 1 mm 10 mps 729 mmHg 91%
    05:00 +1°C° 1 mm 10 mps 729 mmHg 90%
    06:00 +2°C° 1 mm 10 mps 729 mmHg 89%
    07:00 +2°C° 0.1 mm 9 mps 730 mmHg 87%
    08:00 +2°C° 0.1 mm 9 mps 730 mmHg 85%
    09:00 +4°C° 0.1 mm 8 mps 731 mmHg 83%
    10:00 +3°C° 0.1 mm 9 mps 732 mmHg 80%
    11:00 +5°C° 0.1 mm 9 mps 732 mmHg 77%
    12:00 +5°C° 0.1 mm 9 mps 733 mmHg 73%
    13:00 +5°C° 0 mm 8 mps 733 mmHg 73%
    14:00 +5°C° 0 mm 8 mps 734 mmHg 73%
    15:00 +5°C° 0 mm 7 mps 734 mmHg 72%
    16:00 +4°C° 0 mm 7 mps 735 mmHg 75%
    17:00 +3°C° 0 mm 6 mps 736 mmHg 77%
    18:00 +2°C° 0 mm 6 mps 736 mmHg 79%
    19:00 +2°C° 0 mm 6 mps 737 mmHg 80%
    20:00 +1°C° 0 mm 6 mps 738 mmHg 81%
    21:00 +1°C° 0 mm 6 mps 739 mmHg 82%
    22:00 -1°C° 0 mm 6 mps 739 mmHg 79%
    23:00 -1°C° 0 mm 6 mps 740 mmHg 77%
    Show more